This is the latest recevied weather packets stored in our database for station/object KT5AL. If no packets are shown the sender has not sent any weather packets the latest 1 day(s).
| Time | Temp. | Humidity | Pressure | Rain* | Wind** | Luminosity | Snow |
|---|---|---|---|---|---|---|---|
| 1778031906 | 18.33° C | 88% | 1008.3 hPa | 0 mm | 4.47 m/s, 360° | - | - |
| 1778031603 | 18.33° C | 87% | 1008.3 hPa | 0 mm | 2.68 m/s, 337° | - | - |
| 1778031306 | 18.33° C | 87% | 1008 hPa | 0 mm | 2.68 m/s, 337° | - | - |
| 1778031002 | 18.33° C | 86% | 1008 hPa | 0 mm | 3.58 m/s, 337° | - | - |
| 1778030706 | 18.33° C | 86% | 1008 hPa | 0 mm | 3.13 m/s, 337° | - | - |
| 1778030403 | 18.33° C | 85% | 1008 hPa | 0 mm | 2.24 m/s, 360° | - | - |
| 1778030106 | 18.33° C | 85% | 1007.3 hPa | 0 mm | 2.24 m/s, 22° | - | - |
| 1778029803 | 18.33° C | 85% | 1007.3 hPa | 0 mm | 3.13 m/s, 337° | - | - |
| 1778029505 | 18.89° C | 84% | 1006.6 hPa | 0 mm | 4.47 m/s, 337° | - | - |
| 1778029203 | 18.89° C | 83% | 1006.6 hPa | 0 mm | 4.92 m/s, 337° | - | - |
| 1778028906 | 18.89° C | 83% | 1007 hPa | 0 mm | 4.47 m/s, 360° | - | - |
| 1778028603 | 18.89° C | 83% | 1007 hPa | 0 mm | 4.92 m/s, 337° | - | - |
| 1778028305 | 18.89° C | 82% | 1006.6 hPa | 0 mm | 4.47 m/s, 22° | - | - |
| 1778028002 | 18.89° C | 82% | 1006.6 hPa | 0 mm | 5.36 m/s, 337° | - | - |
| 1778027705 | 19.44° C | 81% | 1006.3 hPa | 0 mm | 6.71 m/s, 337° | - | - |
| 1778027408 | 20° C | 82% | 1006.3 hPa | 0 mm | 4.92 m/s, 337° | - | - |
| 1778027104 | 20° C | 80% | 1005.6 hPa | 0 mm | 5.36 m/s, 337° | - | - |
| 1778026807 | 20° C | 80% | 1005.6 hPa | 0 mm | 4.92 m/s, 337° | - | - |
| 1778026505 | 20.56° C | 79% | 1006.3 hPa | 0 mm | 4.47 m/s, 337° | - | - |
| 1778026207 | 20.56° C | 79% | 1006.3 hPa | 0 mm | 5.36 m/s, 337° | - | - |
| 1778025904 | 20.56° C | 79% | 1006 hPa | 0 mm | 5.81 m/s, 337° | - | - |
| 1778025607 | 21.11° C | 79% | 1006 hPa | 0 mm | 4.47 m/s, 337° | - | - |
| 1778025304 | 21.11° C | 77% | 1005.6 hPa | 0 mm | 5.81 m/s, 337° | - | - |
| 1778025008 | 21.11° C | 77% | 1005.6 hPa | 0 mm | 6.26 m/s, 360° | - | - |
| 1778024731 | 21.11° C | 76% | 1005.3 hPa | 0 mm | 5.36 m/s, 337° | - | - |
* Rain latest hour (hover to see other rain measurements)
** Current wind speed in m/s (hover to see current wind gust speed)